1KUNS-PF (43466 NORAD) Tracking and Keplerian Element Data

This shows tracking and keplerian element data for the satellite.

Feedback or suggestion? Click here.




ElementValue
Catalog43466
Name1KUNS-PF
Epoch Orbit11946
Epoch Day162.72983235
Epoch Year2020
RAAN283.7308
Inclination51.6123
Eccentricity0.0007318
Argument of Perigee301.8476
Mean Anonmoly166.204
Mean Motion16.39179723
Decay Rate0.07919004
L11 43466U 98067NP 20162.72983235 .07919004 12439-4 62785-3 0 9997
L22 43466 51.6123 283.7308 0007318 301.8476 166.2040 16.39179723119460



Live tracking and technical data element details for 1KUNS-PF (NORAD 43466). 1KUNS-PF can be tracked NOW for your location showing map with azimuth and elevation plus other details from your city location.







IsCatalogInMostPopularTable: catalog: 43466, numindb: 639
Update: records affected: 1



GetName: 43466 1KUNS-PF

Hit Count: updated at: Thu, 13 Feb 2025 15:03:31 GMT